,,Stat6,,Stat2,,Stat8,,Stat9,,Stat10,,Wind1,,Wind1,
time,status,PA1M_AVG,status,PR1M_SUM,status,RH1M_AVG,status,SR1M_AVG,status,TA1M_AVG,status,W1dAve1m,status,W1sAve1m,
2005-07-21, 00:00:00,VALID,919.575,VALID,0,VALID,100,VALID,-0.0509425,VALID,17.9049,VALID,112,VALID,0.747743,
2005-07-21, 00:01:00,VALID,919.583,VALID,0,VALID,100,VALID,0,VALID,17.8911,VALID,110,VALID,0.661458,
2005-07-21, 00:02:00,VALID,919.573,VALID,0,VALID,100,VALID,-0.0339617,VALID,17.9081,VALID,104,VALID,1.07698,
2005-07-21, 00:03:00,VALID,919.557,VALID,0,VALID,100,VALID,-0.0169808,VALID,17.9014,VALID,110,VALID,0.974927,
2005-07-21, 00:04:00,VALID,919.557,VALID,0,VALID,100,VALID,-0.0339617,VALID,17.901,VALID,110,VALID,0.633929,
2005-07-21, 00:05:00,VALID,919.546,VALID,0,VALID,100,VALID,-0.0509425,VALID,17.9014,VALID,118,VALID,0.491122,
2005-07-21, 00:06:00,VALID,919.54,VALID,0,VALID,100,VALID,-0.0679233,VALID,17.9144,VALID,120,VALID,0.59561,
2005-07-21, 00:07:00,VALID,919.525,VALID,0,VALID,100,VALID,-0.0679233,VALID,17.9075,VALID,131,VALID,0.699963,
2005-07-21, 00:08:00,VALID,919.515,VALID,0,VALID,100,VALID,-0.0339617,VALID,17.8913,VALID,125,VALID,0.705915,
2005-07-21, 00:09:00,VALID,919.488,VALID,0,VALID,100,VALID,-0.0679233,VALID,17.898,VALID,112,VALID,0.947409,
2005-07-21, 00:10:00,VALID,919.47,VALID,0,VALID,100,VALID,-0.0679233,VALID,17.8754,VALID,102,VALID,1.18398,
2005-07-21, 00:11:00,VALID,919.469,VALID,0,VALID,100,VALID,-0.0339617,VALID,17.8752,VALID,108,VALID,1.03498,
2005-07-21, 00:12:00,VALID,919.452,VALID,0,VALID,100,VALID,-0.0339617,VALID,17.8885,VALID,108,VALID,0.531622,
2005-07-21, 00:13:00,VALID,919.444,VALID,0,VALID,100,VALID,0.0509425,VALID,17.8911,VALID,105,VALID,1.11683,
2005-07-21, 00:14:00,VALID,919.439,VALID,0,VALID,100,VALID,0.0679233,VALID,17.8909,VALID,113,VALID,0.958133,
2005-07-21, 00:15:00,VALID,919.432,VALID,0,VALID,100,VALID,0.0849042,VALID,17.8969,VALID,113,VALID,0.872523,
2005-07-21, 00:16:00,VALID,919.43,VALID,0,VALID,100,VALID,0.0509425,VALID,17.9001,VALID,114,VALID,0.892857,
2005-07-21, 00:17:00,VALID,919.413,VALID,0,VALID,100,VALID,0,VALID,17.8966,VALID,108,VALID,0.513626,
2005-07-21, 00:18:00,VALID,919.412,VALID,0,VALID,100,VALID,0.0679233,VALID,17.9031,VALID,109,VALID,0.542039,
2005-07-21, 00:19:00,VALID,919.407,VALID,0,VALID,100,VALID,0.0339617,VALID,17.9001,VALID,111,VALID,0.477307,
2005-07-21, 00:20:00,VALID,919.4,VALID,0,VALID,100,VALID,0.0339617,VALID,17.8994,VALID,109,VALID,0.984012,
2005-07-21, 00:21:00,VALID,919.387,VALID,0,VALID,100,VALID,0.0679233,VALID,17.8969,VALID,101,VALID,0.969769,
2005-07-21, 00:22:00,VALID,919.373,VALID,0,VALID,100,VALID,0.101885,VALID,17.9001,VALID,105,VALID,1.02653,
2005-07-21, 00:23:00,VALID,919.389,VALID,0,VALID,100,VALID,0.101885,VALID,17.8801,VALID,105,VALID,0.818314,
2005-07-21, 00:24:00,VALID,919.386,VALID,0,VALID,100,VALID,0.101885,VALID,17.8805,VALID,107,VALID,0.860263,
2005-07-21, 00:25:00,VALID,919.383,VALID,0,VALID,100,VALID,0.101885,VALID,17.874,VALID,108,VALID,1.20382,
2005-07-21, 00:26:00,VALID,919.398,VALID,0,VALID,100,VALID,0.0679233,VALID,17.8575,VALID,119,VALID,0.928571,
2005-07-21, 00:27:00,VALID,919.41,VALID,0,VALID,100,VALID,0.0849042,VALID,17.8708,VALID,112,VALID,0.816229,
2005-07-21, 00:28:00,VALID,919.432,VALID,0,VALID,100,VALID,0,VALID,17.8554,VALID,124,VALID,0.570499,
2005-07-21, 00:29:00,VALID,919.424,VALID,0,VALID,100,VALID,-0.0339617,VALID,17.8588,VALID,119,VALID,0.414971,
2005-07-21, 00:30:00,VALID,919.437,VALID,0,VALID,100,VALID,-0.0339617,VALID,17.8659,VALID,115,VALID,0.615371,
2005-07-21, 00:31:00,VALID,919.449,VALID,0,VALID,100,VALID,-0.0339617,VALID,17.8526,VALID,116,VALID,0.679306,
2005-07-21, 00:32:00,VALID,919.44,VALID,0,VALID,100,VALID,-0.0509425,VALID,17.8563,VALID,116,VALID,0.469922,
2005-07-21, 00:33:00,VALID,919.43,VALID,0,VALID,100,VALID,-0.0169808,VALID,17.856,VALID,115,VALID,0.643111,
2005-07-21, 00:34:00,VALID,919.429,VALID,0,VALID,100,VALID,-0.0339617,VALID,17.8625,VALID,112,VALID,0.682706,
2005-07-21, 00:35:00,VALID,919.416,VALID,0,VALID,100,VALID,-0.0169808,VALID,17.8664,VALID,102,VALID,0.740767,
2005-07-21, 00:36:00,VALID,919.419,VALID,0,VALID,100,VALID,-0.0679233,VALID,17.8632,VALID,92,VALID,0.745916,
2005-07-21, 00:37:00,VALID,919.417,VALID,0,VALID,100,VALID,-0.0509425,VALID,17.856,VALID,91,VALID,0.55957,
2005-07-21, 00:38:00,VALID,919.397,VALID,0,VALID,100,VALID,-0.0849042,VALID,17.8694,VALID,91,VALID,0.507068,
2005-07-21, 00:39:00,VALID,919.385,VALID,0,VALID,100,VALID,-0.0169808,VALID,17.8655,VALID,91,VALID,0.371094,
2005-07-21, 00:40:00,VALID,919.377,VALID,0,VALID,100,VALID,-0.0509425,VALID,17.8761,VALID,91,VALID,0.515104,
2005-07-21, 00:41:00,VALID,919.355,VALID,0,VALID,100,VALID,-0.0339617,VALID,17.8623,VALID,95,VALID,0.672057,
2005-07-21, 00:42:00,VALID,919.33,VALID,0,VALID,100,VALID,-0.0509425,VALID,17.8689,VALID,101,VALID,0.464935,
2005-07-21, 00:43:00,VALID,919.302,VALID,0,VALID,100,VALID,0,VALID,17.8786,VALID,106,VALID,0.479992,
2005-07-21, 00:44:00,VALID,919.286,VALID,0,VALID,100,VALID,-0.0169808,VALID,17.8885,VALID,113,VALID,0.762074,
2005-07-21, 00:45:00,VALID,919.28,VALID,0,VALID,100,VALID,-0.0169808,VALID,17.8752,VALID,120,VALID,0.716463,
2005-07-21, 00:46:00,VALID,919.268,VALID,0,VALID,100,VALID,-0.0169808,VALID,17.8853,VALID,120,VALID,0.536395,
2005-07-21, 00:47:00,VALID,919.25,VALID,0,VALID,100,VALID,-0.0339617,VALID,17.8879,VALID,121,VALID,0.639863,
2005-07-21, 00:48:00,VALID,919.246,VALID,0,VALID,100,VALID,0,VALID,17.8816,VALID,145,VALID,0.790838,
2005-07-21, 00:49:00,VALID,919.223,VALID,0,VALID,100,VALID,-0.0339617,VALID,17.8819,VALID,140,VALID,0.840774,
2005-07-21, 00:50:00,VALID,919.218,VALID,0,VALID,100,VALID,-0.0509425,VALID,17.9014,VALID,139,VALID,0.581861,
2005-07-21, 00:51:00,VALID,919.203,VALID,0,VALID,100,VALID,-0.0169808,VALID,17.901,VALID,158,VALID,0.522266,
2005-07-21, 00:52:00,VALID,919.192,VALID,0,VALID,100,VALID,0,VALID,17.9047,VALID,160,VALID,0.606771,
2005-07-21, 00:53:00,VALID,919.173,VALID,0,VALID,100,VALID,-0.0339617,VALID,17.8943,VALID,158,VALID,0.766387,
2005-07-21, 00:54:00,VALID,919.154,VALID,0,VALID,100,VALID,-0.0339617,VALID,17.8975,VALID,145,VALID,0.571265,
2005-07-21, 00:55:00,VALID,919.14,VALID,0,VALID,100,VALID,-0.0509425,VALID,17.898,VALID,136,VALID,0.778011,
2005-07-21, 00:56:00,VALID,919.131,VALID,0,VALID,100,VALID,-0.0169808,VALID,17.8913,VALID,134,VALID,0.796875,
2005-07-21, 00:57:00,VALID,919.124,VALID,0,VALID,100,VALID,-0.0339617,VALID,17.8945,VALID,135,VALID,0.44455,
2005-07-21, 00:58:00,VALID,919.13,VALID,0,VALID,100,VALID,0.0849042,VALID,17.884,VALID,142,VALID,0.683321,
2005-07-21, 00:59:00,VALID,919.124,VALID,0,VALID,100,VALID,0.0849042,VALID,17.8736,VALID,136,VALID,0.826601,
2005-07-21, 01:00:00,VALID,919.121,VALID,0,VALID,100,VALID,0.101885,VALID,17.8674,VALID,129,VALID,1.13263,
2005-07-21, 01:01:00,VALID,919.121,VALID,0,VALID,100,VALID,0.101885,VALID,17.8713,VALID,139,VALID,0.731957,
2005-07-21, 01:02:00,VALID,919.128,VALID,0,VALID,100,VALID,0.118866,VALID,17.8611,VALID,130,VALID,0.960938,
2005-07-21, 01:03:00,VALID,919.11,VALID,0,VALID,100,VALID,0.101885,VALID,17.8448,VALID,122,VALID,0.89444,
2005-07-21, 01:04:00,VALID,919.092,VALID,0,VALID,100,VALID,0.101885,VALID,17.8252,VALID,132,VALID,0.926054,
2005-07-21, 01:05:00,VALID,919.083,VALID,0,VALID,100,VALID,0.0679233,VALID,17.8323,VALID,126,VALID,0.937881,
2005-07-21, 01:06:00,VALID,919.069,VALID,0,VALID,100,VALID,0.0849042,VALID,17.8159,VALID,134,VALID,0.462028,
2005-07-21, 01:07:00,VALID,919.056,VALID,0,VALID,100,VALID,0.101885,VALID,17.806,VALID,126,VALID,0.598133,
2005-07-21, 01:08:00,VALID,919.045,VALID,0,VALID,100,VALID,0.101885,VALID,17.806,VALID,121,VALID,0.836496,
2005-07-21, 01:09:00,VALID,919.037,VALID,0,VALID,100,VALID,0.0849042,VALID,17.8198,VALID,121,VALID,0.68564,
2005-07-21, 01:10:00,VALID,919.014,VALID,0,VALID,100,VALID,0.101885,VALID,17.8157,VALID,147,VALID,0.510547,
2005-07-21, 01:11:00,VALID,919.005,VALID,0,VALID,100,VALID,0.101885,VALID,17.8254,VALID,138,VALID,0.664253,
2005-07-21, 01:12:00,VALID,918.982,VALID,0,VALID,100,VALID,0.0679233,VALID,17.8222,VALID,135,VALID,1.07919,
2005-07-21, 01:13:00,VALID,918.967,VALID,0,VALID,100,VALID,0,VALID,17.8362,VALID,130,VALID,1.20072,
2005-07-21, 01:14:00,VALID,918.937,VALID,0,VALID,99.9802,VALID,0,VALID,17.856,VALID,125,VALID,1.10174,
2005-07-21, 01:15:00,VALID,918.92,VALID,0,VALID,99.8591,VALID,-0.0169808,VALID,17.8524,VALID,133,VALID,0.743253,
2005-07-21, 01:16:00,VALID,918.917,VALID,0,VALID,99.7866,VALID,0,VALID,17.8588,VALID,124,VALID,0.983259,
2005-07-21, 01:17:00,VALID,918.889,VALID,0,VALID,99.8426,VALID,-0.0169808,VALID,17.8756,VALID,117,VALID,0.658975,
2005-07-21, 01:18:00,VALID,918.894,VALID,0,VALID,99.9893,VALID,-0.0339617,VALID,17.8888,VALID,127,VALID,0.716146,
2005-07-21, 01:19:00,VALID,918.868,VALID,0,VALID,100,VALID,-0.0169808,VALID,17.8722,VALID,87,VALID,0.615007,
2005-07-21, 01:20:00,VALID,918.851,VALID,0,VALID,100,VALID,0,VALID,17.8662,VALID,93,VALID,0.987749,
2005-07-21, 01:21:00,VALID,918.84,VALID,0,VALID,100,VALID,-0.0169808,VALID,17.8265,VALID,65,VALID,0.8879,
2005-07-21, 01:22:00,VALID,918.836,VALID,0,VALID,100,VALID,0,VALID,17.8337,VALID,57,VALID,0.788132,
2005-07-21, 01:23:00,VALID,918.828,VALID,0,VALID,100,VALID,0,VALID,17.8069,VALID,35,VALID,0.603051,
2005-07-21, 01:24:00,VALID,918.809,VALID,0,VALID,100,VALID,-0.0169808,VALID,17.8175,VALID,35,VALID,0.373001,
2005-07-21, 01:25:00,VALID,918.8,VALID,0,VALID,100,VALID,-0.0169808,VALID,17.7912,VALID,35,VALID,0.110352,
2005-07-21, 01:26:00,VALID,918.782,VALID,0,VALID,100,VALID,0,VALID,17.7818,VALID,35,VALID,0.0554142,
2005-07-21, 01:27:00,VALID,918.762,VALID,0,VALID,100,VALID,0,VALID,17.7723,VALID,40,VALID,0.193452,
2005-07-21, 01:28:00,VALID,918.74,VALID,0,VALID,100,VALID,-0.0339617,VALID,17.759,VALID,64,VALID,0.419695,
2005-07-21, 01:29:00,VALID,918.708,VALID,0,VALID,100,VALID,0.0169808,VALID,17.7626,VALID,65,VALID,0.773628,
2005-07-21, 01:30:00,VALID,918.69,VALID,0,VALID,100,VALID,-0.0169808,VALID,17.7557,VALID,68,VALID,1.08221,
2005-07-21, 01:31:00,VALID,918.664,VALID,0,VALID,100,VALID,-0.0169808,VALID,17.7594,VALID,65,VALID,1.27398,
2005-07-21, 01:32:00,VALID,918.663,VALID,0,VALID,100,VALID,-0.0339617,VALID,17.7659,VALID,62,VALID,1.19817,
2005-07-21, 01:33:00,VALID,918.662,VALID,0,VALID,100,VALID,-0.0169808,VALID,17.7594,VALID,51,VALID,0.818452,
2005-07-21, 01:34:00,VALID,918.652,VALID,0,VALID,100,VALID,0,VALID,17.7403,VALID,47,VALID,0.658253,
2005-07-21, 01:35:00,VALID,918.644,VALID,0,VALID,100,VALID,0,VALID,17.7338,VALID,47,VALID,0.521528,
2005-07-21, 01:36:00,VALID,918.627,VALID,0,VALID,100,VALID,-0.0169808,VALID,17.7237,VALID,48,VALID,0.749619,
2005-07-21, 01:37:00,VALID,918.617,VALID,0,VALID,100,VALID,-0.0169808,VALID,17.7073,VALID,56,VALID,0.760045,
2005-07-21, 01:38:00,VALID,918.616,VALID,0,VALID,100,VALID,0,VALID,17.7013,VALID,61,VALID,0.649858,
2005-07-21, 01:39:00,VALID,918.602,VALID,0,VALID,100,VALID,0,VALID,17.6849,VALID,82,VALID,0.687691,
2005-07-21, 01:40:00,VALID,918.603,VALID,0,VALID,100,VALID,-0.0169808,VALID,17.6856,VALID,96,VALID,0.659722,
2005-07-21, 01:41:00,VALID,918.589,VALID,0,VALID,100,VALID,-0.0169808,VALID,17.6757,VALID,96,VALID,0.875,
2005-07-21, 01:42:00,VALID,918.556,VALID,0,VALID,100,VALID,-0.0509425,VALID,17.6762,VALID,98,VALID,0.834579,
2005-07-21, 01:43:00,VALID,918.546,VALID,0,VALID,100,VALID,-0.0679233,VALID,17.6828,VALID,106,VALID,0.538504,
2005-07-21, 01:44:00,VALID,918.538,VALID,0,VALID,100,VALID,-0.0509425,VALID,17.6854,VALID,116,VALID,0.560497,
2005-07-21, 01:45:00,VALID,918.494,VALID,0,VALID,100,VALID,-0.0169808,VALID,17.7013,VALID,127,VALID,0.546303,
2005-07-21, 01:46:00,VALID,918.477,VALID,0,VALID,100,VALID,-0.0169808,VALID,17.708,VALID,106,VALID,0.470439,
2005-07-21, 01:47:00,VALID,918.452,VALID,0,VALID,100,VALID,0,VALID,17.6914,VALID,96,VALID,0.581032,
2005-07-21, 01:48:00,VALID,918.42,VALID,0,VALID,100,VALID,-0.0169808,VALID,17.711,VALID,77,VALID,0.781622,
2005-07-21, 01:49:00,VALID,918.411,VALID,0,VALID,100,VALID,-0.0169808,VALID,17.7144,VALID,52,VALID,0.888021,
2005-07-21, 01:50:00,VALID,918.391,VALID,0,VALID,100,VALID,-0.0339617,VALID,17.7147,VALID,37,VALID,0.837109,
2005-07-21, 01:51:00,VALID,918.372,VALID,0,VALID,100,VALID,0,VALID,17.7011,VALID,37,VALID,0.800391,
2005-07-21, 01:52:00,VALID,918.361,VALID,0,VALID,100,VALID,-0.0169808,VALID,17.6886,VALID,36,VALID,0.873264,
2005-07-21, 01:53:00,VALID,918.352,VALID,0,VALID,100,VALID,0,VALID,17.666,VALID,32,VALID,0.797991,
2005-07-21, 01:54:00,VALID,918.334,VALID,0,VALID,100,VALID,-0.0169808,VALID,17.6464,VALID,32,VALID,0.760099,
2005-07-21, 01:55:00,VALID,918.307,VALID,0,VALID,100,VALID,0,VALID,17.6273,VALID,32,VALID,0.733398,
2005-07-21, 01:56:00,VALID,918.29,VALID,0,VALID,100,VALID,-0.0169808,VALID,17.6045,VALID,32,VALID,0.40811,
2005-07-21, 01:57:00,VALID,918.285,VALID,0,VALID,100,VALID,-0.0169808,VALID,17.601,VALID,32,VALID,0.207292,
2005-07-21, 01:58:00,VALID,918.282,VALID,0,VALID,100,VALID,0.0339617,VALID,17.5909,VALID,32,VALID,0.206771,
2005-07-21, 01:59:00,VALID,918.289,VALID,0,VALID,100,VALID,0.0679233,VALID,17.558,VALID,32,VALID,0.419331,
2005-07-21, 02:00:00,VALID,918.3,VALID,0,VALID,100,VALID,0.0679233,VALID,17.5519,VALID,32,VALID,0.389062,
2005-07-21, 02:01:00,VALID,918.3,VALID,0,VALID,100,VALID,0.0509425,VALID,17.545,VALID,32,VALID,0.286285,
2005-07-21, 02:02:00,VALID,918.298,VALID,0,VALID,100,VALID,0.0509425,VALID,17.5487,VALID,32,VALID,0.175877,
2005-07-21, 02:03:00,VALID,918.311,VALID,0,VALID,100,VALID,0.0509425,VALID,17.5261,VALID,32,VALID,0.440039,
2005-07-21, 02:04:00,VALID,918.304,VALID,0,VALID,100,VALID,0.0339617,VALID,17.4966,VALID,32,VALID,0.548363,
2005-07-21, 02:05:00,VALID,918.301,VALID,0,VALID,100,VALID,0.0169808,VALID,17.4743,VALID,65,VALID,0.729226,
2005-07-21, 02:06:00,VALID,918.278,VALID,0,VALID,100,VALID,0.0169808,VALID,17.4583,VALID,100,VALID,0.923692,
2005-07-21, 02:07:00,VALID,918.288,VALID,0,VALID,100,VALID,0.0339617,VALID,17.4553,VALID,103,VALID,0.919829,
2005-07-21, 02:08:00,VALID,918.288,VALID,0,VALID,100,VALID,0,VALID,17.4426,VALID,103,VALID,0.853819,
2005-07-21, 02:09:00,VALID,918.275,VALID,0,VALID,100,VALID,0,VALID,17.4422,VALID,103,VALID,0.690625,
2005-07-21, 02:10:00,VALID,918.275,VALID,0,VALID,100,VALID,0,VALID,17.4625,VALID,107,VALID,0.748935,
2005-07-21, 02:11:00,VALID,918.277,VALID,0,VALID,100,VALID,0.0509425,VALID,17.4715,VALID,104,VALID,0.696646,
2005-07-21, 02:12:00,VALID,918.273,VALID,0,VALID,100,VALID,0.0169808,VALID,17.4648,VALID,89,VALID,0.761806,
2005-07-21, 02:13:00,VALID,918.263,VALID,0,VALID,100,VALID,-0.0339617,VALID,17.4691,VALID,89,VALID,0.788699,
2005-07-21, 02:14:00,VALID,918.278,VALID,0,VALID,100,VALID,-0.101885,VALID,17.476,VALID,89,VALID,0.657812,
2005-07-21, 02:15:00,VALID,918.276,VALID,0,VALID,100,VALID,-0.0849042,VALID,17.4726,VALID,89,VALID,0.60625,
2005-07-21, 02:16:00,VALID,918.295,VALID,0,VALID,100,VALID,-0.0679233,VALID,17.479,VALID,89,VALID,0.544922,
2005-07-21, 02:17:00,VALID,918.298,VALID,0,VALID,100,VALID,-0.101885,VALID,17.4698,VALID,89,VALID,0.513086,
2005-07-21, 02:18:00,VALID,918.301,VALID,0,VALID,100,VALID,-0.0679233,VALID,17.4663,VALID,96,VALID,0.543945,
2005-07-21, 02:19:00,VALID,918.328,VALID,0,VALID,100,VALID,-0.0509425,VALID,17.4659,VALID,133,VALID,0.677083,
2005-07-21, 02:20:00,VALID,918.34,VALID,0,VALID,100,VALID,-0.0509425,VALID,17.4922,VALID,148,VALID,0.638927,
2005-07-21, 02:21:00,VALID,918.355,VALID,0,VALID,100,VALID,-0.101885,VALID,17.5051,VALID,140,VALID,0.939808,
2005-07-21, 02:22:00,VALID,918.354,VALID,0,VALID,100,VALID,-0.0849042,VALID,17.521,VALID,125,VALID,0.645579,
2005-07-21, 02:23:00,VALID,918.357,VALID,0,VALID,100,VALID,-0.0679233,VALID,17.5473,VALID,127,VALID,0.725446,
2005-07-21, 02:24:00,VALID,918.375,VALID,0,VALID,100,VALID,-0.0679233,VALID,17.5634,VALID,125,VALID,0.561133,
2005-07-21, 02:25:00,VALID,918.376,VALID,0,VALID,100,VALID,-0.0509425,VALID,17.5828,VALID,127,VALID,0.658398,
2005-07-21, 02:26:00,VALID,918.38,VALID,0,VALID,100,VALID,-0.0509425,VALID,17.5924,VALID,111,VALID,0.656432,
2005-07-21, 02:27:00,VALID,918.368,VALID,0,VALID,100,VALID,-0.0169808,VALID,17.6017,VALID,84,VALID,0.613281,
2005-07-21, 02:28:00,VALID,918.37,VALID,0,VALID,100,VALID,0.0169808,VALID,17.5877,VALID,88,VALID,0.788194,
2005-07-21, 02:29:00,VALID,918.359,VALID,0,VALID,100,VALID,0.0169808,VALID,17.5909,VALID,91,VALID,0.791371,
2005-07-21, 02:30:00,VALID,918.334,VALID,0,VALID,100,VALID,0.0509425,VALID,17.5905,VALID,104,VALID,1.05984,
2005-07-21, 02:31:00,VALID,918.299,VALID,0,VALID,100,VALID,0.0339617,VALID,17.607,VALID,97,VALID,0.932478,
2005-07-21, 02:32:00,VALID,918.274,VALID,0,VALID,100,VALID,0.0169808,VALID,17.6066,VALID,76,VALID,0.653274,
2005-07-21, 02:33:00,VALID,918.254,VALID,0,VALID,100,VALID,0.0339617,VALID,17.6165,VALID,79,VALID,0.887784,
2005-07-21, 02:34:00,VALID,918.233,VALID,0,VALID,100,VALID,0.0509425,VALID,17.6234,VALID,85,VALID,0.910633,
2005-07-21, 02:35:00,VALID,918.226,VALID,0,VALID,100,VALID,0.0169808,VALID,17.6004,VALID,85,VALID,1.02846,
2005-07-21, 02:36:00,VALID,918.216,VALID,0,VALID,100,VALID,0,VALID,17.6103,VALID,76,VALID,0.676339,
2005-07-21, 02:37:00,VALID,918.202,VALID,0,VALID,100,VALID,0.0169808,VALID,17.6238,VALID,73,VALID,0.348837,
2005-07-21, 02:38:00,VALID,918.209,VALID,0,VALID,100,VALID,0,VALID,17.6135,VALID,55,VALID,0.478016,
2005-07-21, 02:39:00,VALID,918.211,VALID,0,VALID,100,VALID,0.0339617,VALID,17.6008,VALID,36,VALID,0.403011,
2005-07-21, 02:40:00,VALID,918.196,VALID,0,VALID,100,VALID,0.0509425,VALID,17.5974,VALID,10,VALID,0.414444,
2005-07-21, 02:41:00,VALID,918.191,VALID,0,VALID,100,VALID,0.0509425,VALID,17.5909,VALID,10,VALID,0.0152616,
2005-07-21, 02:42:00,VALID,918.178,VALID,0,VALID,100,VALID,0.0169808,VALID,17.5905,VALID,10,VALID,0.0445131,
2005-07-21, 02:43:00,VALID,918.155,VALID,0,VALID,100,VALID,-0.0849042,VALID,17.595,VALID,29,VALID,0.466882,
2005-07-21, 02:44:00,VALID,918.141,VALID,0,VALID,100,VALID,-0.0849042,VALID,17.5888,VALID,41,VALID,0.337209,
2005-07-21, 02:45:00,VALID,918.133,VALID,0,VALID,100,VALID,-0.0849042,VALID,17.589,VALID,41,VALID,0.295312,
2005-07-21, 02:46:00,VALID,918.13,VALID,0,VALID,100,VALID,-0.101885,VALID,17.5759,VALID,41,VALID,0.0347842,
2005-07-21, 02:47:00,VALID,918.143,VALID,0,VALID,100,VALID,-0.0849042,VALID,17.5664,VALID,41,VALID,0,
2005-07-21, 02:48:00,VALID,918.128,VALID,0,VALID,100,VALID,-0.0849042,VALID,17.5632,VALID,41,VALID,0,
2005-07-21, 02:49:00,VALID,918.16,VALID,0,VALID,100,VALID,-0.101885,VALID,17.5503,VALID,41,VALID,0,
2005-07-21, 02:50:00,VALID,918.165,VALID,0,VALID,100,VALID,-0.101885,VALID,17.5539,VALID,40,VALID,0.171342,
2005-07-21, 02:51:00,VALID,918.163,VALID,0,VALID,100,VALID,-0.101885,VALID,17.5668,VALID,26,VALID,0.186198,
2005-07-21, 02:52:00,VALID,918.154,VALID,0,VALID,100,VALID,-0.101885,VALID,17.5729,VALID,22,VALID,0.153161,
2005-07-21, 02:53:00,VALID,918.15,VALID,0,VALID,100,VALID,-0.0849042,VALID,17.5632,VALID,12,VALID,0.54859,
2005-07-21, 02:54:00,VALID,918.125,VALID,0,VALID,100,VALID,-0.101885,VALID,17.5606,VALID,360,VALID,0.81032,
2005-07-21, 02:55:00,VALID,918.088,VALID,0,VALID,100,VALID,-0.101885,VALID,17.544,VALID,349,VALID,0.628089,
2005-07-21, 02:56:00,VALID,918.052,VALID,0,VALID,100,VALID,-0.101885,VALID,17.5115,VALID,349,VALID,0.536701,
2005-07-21, 02:57:00,VALID,918.032,VALID,0,VALID,100,VALID,-0.101885,VALID,17.473,VALID,354,VALID,0.701308,
2005-07-21, 02:58:00,VALID,918.01,VALID,0,VALID,100,VALID,0.0339617,VALID,17.4394,VALID,358,VALID,0.56108,
2005-07-21, 02:59:00,VALID,917.994,VALID,0,VALID,100,VALID,0.0679233,VALID,17.4293,VALID,347,VALID,0.911701,
2005-07-21, 03:00:00,VALID,917.99,VALID,0,VALID,100,VALID,0.0849042,VALID,17.4457,VALID,322,VALID,0.374428,
2005-07-21, 03:01:00,VALID,917.99,VALID,0,VALID,100,VALID,0.0509425,VALID,17.4551,VALID,320,VALID,0.0414807,
2005-07-21, 03:02:00,VALID,917.984,VALID,0,VALID,100,VALID,0.0509425,VALID,17.4683,VALID,326,VALID,0.093936,
2005-07-21, 03:03:00,VALID,917.97,VALID,0,VALID,100,VALID,0.0679233,VALID,17.4683,VALID,344,VALID,0.365885,
2005-07-21, 03:04:00,VALID,917.973,VALID,0,VALID,100,VALID,0.0339617,VALID,17.4784,VALID,358,VALID,0.47311,
2005-07-21, 03:05:00,VALID,917.965,VALID,0,VALID,100,VALID,0.0509425,VALID,17.4874,VALID,358,VALID,0.438453,
2005-07-21, 03:06:00,VALID,917.978,VALID,0,VALID,100,VALID,0.0339617,VALID,17.501,VALID,10,VALID,0.544567,
2005-07-21, 03:07:00,VALID,917.987,VALID,0,VALID,100,VALID,0.0849042,VALID,17.5003,VALID,360,VALID,0.494665,
2005-07-21, 03:08:00,VALID,917.992,VALID,0,VALID,100,VALID,0.0849042,VALID,17.507,VALID,317,VALID,0.492773,
2005-07-21, 03:09:00,VALID,917.994,VALID,0,VALID,100,VALID,0.0679233,VALID,17.5072,VALID,312,VALID,0.134629,
2005-07-21, 03:10:00,VALID,917.991,VALID,0,VALID,100,VALID,0.0509425,VALID,17.513,VALID,318,VALID,0.545139,
2005-07-21, 03:11:00,VALID,918.01,VALID,0,VALID,100,VALID,0.0339617,VALID,17.5171,VALID,313,VALID,0.631055,
2005-07-21, 03:12:00,VALID,918.012,VALID,0,VALID,100,VALID,0.0679233,VALID,17.5169,VALID,317,VALID,0.59189,
2005-07-21, 03:13:00,VALID,918.011,VALID,0,VALID,100,VALID,-0.0339617,VALID,17.5111,VALID,349,VALID,0.249428,
2005-07-21, 03:14:00,VALID,918.005,VALID,0,VALID,100,VALID,-0.0339617,VALID,17.5079,VALID,349,VALID,0.27255,
2005-07-21, 03:15:00,VALID,917.985,VALID,0,VALID,100,VALID,-0.0509425,VALID,17.5247,VALID,349,VALID,0.18192,
2005-07-21, 03:16:00,VALID,917.963,VALID,0,VALID,100,VALID,-0.0509425,VALID,17.5145,VALID,349,VALID,0.0850694,
2005-07-21, 03:17:00,VALID,917.935,VALID,0,VALID,100,VALID,-0.0339617,VALID,17.5277,VALID,349,VALID,0,
2005-07-21, 03:18:00,VALID,917.91,VALID,0,VALID,100,VALID,-0.0169808,VALID,17.5371,VALID,349,VALID,0,
2005-07-21, 03:19:00,VALID,917.89,VALID,0,VALID,100,VALID,-0.0509425,VALID,17.5438,VALID,349,VALID,0.240278,
2005-07-21, 03:20:00,VALID,917.873,VALID,0,VALID,100,VALID,0,VALID,17.5539,VALID,349,VALID,0.409598,
2005-07-21, 03:21:00,VALID,917.852,VALID,0,VALID,100,VALID,-0.0339617,VALID,17.5537,VALID,349,VALID,0.519622,
2005-07-21, 03:22:00,VALID,917.856,VALID,0,VALID,100,VALID,-0.0509425,VALID,17.5473,VALID,349,VALID,0.481585,
2005-07-21, 03:23:00,VALID,917.864,VALID,0,VALID,100,VALID,-0.0169808,VALID,17.5539,VALID,349,VALID,0.466974,
2005-07-21, 03:24:00,VALID,917.86,VALID,0,VALID,100,VALID,-0.0169808,VALID,17.5535,VALID,345,VALID,0.381098,
2005-07-21, 03:25:00,VALID,917.864,VALID,0,VALID,100,VALID,-0.0509425,VALID,17.5696,VALID,302,VALID,0.398438,
2005-07-21, 03:26:00,VALID,917.88,VALID,0,VALID,100,VALID,-0.0509425,VALID,17.5756,VALID,302,VALID,0.240319,
2005-07-21, 03:27:00,VALID,917.884,VALID,0,VALID,100,VALID,-0.0169808,VALID,17.5791,VALID,302,VALID,0.167783,
2005-07-21, 03:28:00,VALID,917.904,VALID,0,VALID,100,VALID,0,VALID,17.5595,VALID,301,VALID,0.37593,
2005-07-21, 03:29:00,VALID,917.922,VALID,0,VALID,100,VALID,-0.0169808,VALID,17.5431,VALID,265,VALID,0.382086,
2005-07-21, 03:30:00,VALID,917.922,VALID,0,VALID,100,VALID,-0.0339617,VALID,17.5374,VALID,167,VALID,0.648247,
2005-07-21, 03:31:00,VALID,917.932,VALID,0,VALID,100,VALID,-0.0339617,VALID,17.5111,VALID,157,VALID,0.64444,
2005-07-21, 03:32:00,VALID,917.944,VALID,0,VALID,100,VALID,-0.0339617,VALID,17.4954,VALID,149,VALID,0.759527,
2005-07-21, 03:33:00,VALID,917.943,VALID,0,VALID,100,VALID,-0.0339617,VALID,17.4795,VALID,150,VALID,0.867188,
2005-07-21, 03:34:00,VALID,917.938,VALID,0,VALID,100,VALID,-0.0339617,VALID,17.4859,VALID,151,VALID,0.714489,
2005-07-21, 03:35:00,VALID,917.933,VALID,0,VALID,100,VALID,-0.0509425,VALID,17.4726,VALID,151,VALID,0.827919,
2005-07-21, 03:36:00,VALID,917.938,VALID,0,VALID,100,VALID,-0.0339617,VALID,17.4762,VALID,150,VALID,0.443359,
2005-07-21, 03:37:00,VALID,917.926,VALID,0,VALID,100,VALID,0,VALID,17.4756,VALID,150,VALID,0.587936,
2005-07-21, 03:38:00,VALID,917.949,VALID,0,VALID,100,VALID,-0.0339617,VALID,17.4825,VALID,150,VALID,0.290483,